| time (UTC) | temp F | wind direction | speed knots | gust knots | rain 1hr in | rain 24hr in | rain mn in | humidity % | barometer mb |
| 20260507083551 | 51 | 203 | 2.6 | 4.3 | 0.00 | 0.00 | 0.00 | 37 | 1015.9 |
| 20260507082551 | 51 | 203 | 1.7 | 3.5 | 0.00 | 0.00 | 0.00 | 40 | 1015.9 |
| 20260507081531 | 50 | 203 | 2.6 | 5.2 | 0.00 | 0.00 | 0.00 | 38 | 1015.9 |
| 20260507080531 | 50 | 203 | 2.6 | 7.0 | 0.00 | 0.00 | 0.00 | 38 | 1015.9 |
| 20260507075530 | 49 | 225 | 0.9 | 4.3 | 0.00 | 0.00 | 0.00 | 43 | 1016.0 |
| 20260507074531 | 49 | 225 | 3.5 | 5.2 | 0.00 | 0.00 | 0.00 | 42 | 1016.0 |
| 20260507073533 | 49 | 248 | 1.7 | 4.3 | 0.00 | 0.00 | 0.00 | 45 | 1016.0 |
| 20260507072531 | 48 | 248 | 0.9 | 4.3 | 0.00 | 0.00 | 0.00 | 48 | 1016.0 |
| 20260507071531 | 48 | 248 | 0.9 | 4.3 | 0.00 | 0.00 | 0.00 | 52 | 1016.0 |
| 20260507070531 | 48 | 248 | 1.7 | 3.5 | 0.00 | 0.00 | 0.00 | 55 | 1016.0 |
| 20260507065532 | 48 | 248 | 1.7 | 3.5 | 0.00 | 0.00 | 0.00 | 55 | 1016.0 |
| 20260507064530 | 47 | 248 | 1.7 | 3.5 | 0.00 | 0.00 | 0.00 | 56 | 1016.0 |
| 20260507063550 | 46 | 248 | 0.9 | 3.5 | 0.00 | 0.00 | 0.00 | 58 | 1016.0 |
| 20260507062531 | 46 | 248 | 1.7 | 3.5 | 0.00 | 0.00 | 0.00 | 60 | 1016.0 |
| 20260507061532 | 44 | 270 | 0.9 | 3.5 | 0.00 | 0.00 | 0.00 | 62 | 1016.0 |
| 20260507060531 | 43 | 0.0 | 1.7 | 0.00 | 0.00 | 0.00 | 59 | 1016.0 | |
| 20260507055531 | 43 | 0.0 | 0.0 | 0.00 | 0.00 | 0.00 | 60 | 1015.9 | |
| 20260507054530 | 44 | 0.0 | 0.0 | 0.00 | 0.00 | 0.00 | 57 | 1016.0 | |
| 20260507053551 | 45 | 0.0 | 2.6 | 0.00 | 0.00 | 0.00 | 54 | 1016.0 | |
| 20260507052610 | 44 | 270 | 0.9 | 3.5 | 0.00 | 0.00 | 0.00 | 58 | 1016.0 |
| 20260507051532 | 42 | 270 | 0.9 | 3.5 | 0.00 | 0.00 | 0.00 | 62 | 1016.0 |
| 20260507050530 | 40 | 270 | 0.9 | 5.2 | 0.00 | 0.00 | 0.00 | 67 | 1016.0 |
| 20260507045530 | 36 | 270 | 0.9 | 3.5 | 0.00 | 0.00 | 0.00 | 76 | 1016.0 |
| 20260507044610 | 34 | 0.0 | 0.0 | 0.00 | 0.00 | 0.00 | 77 | 1016.0 | |
| 20260507043530 | 33 | 0.0 | 0.0 | 0.00 | 0.00 | 0.00 | 78 | 1016.0 | |
| 20260507042551 | 32 | 0.0 | 0.0 | 0.00 | 0.00 | 0.00 | 79 | 1016.0 | |
| 20260507041532 | 31 | 0.0 | 0.0 | 0.00 | 0.00 | 0.00 | 78 | 1016.0 | |
| 20260507040551 | 31 | 0.0 | 0.0 | 0.00 | 0.00 | 0.00 | 76 | 1016.0 | |
| 20260507035531 | 30 | 0.0 | 0.0 | 0.00 | 0.00 | 0.00 | 70 | 1016.0 | |
| 20260507034531 | 29 | 0.0 | 0.0 | 0.00 | 0.00 | 0.00 | 68 | 1015.9 | |
| 20260507033550 | 28 | 0.0 | 0.0 | 0.00 | 0.00 | 0.00 | 66 | 1015.9 | |
| 20260507032531 | 27 | 0.0 | 0.0 | 0.00 | 0.00 | 0.00 | 67 | 1015.9 | |
| 20260507031531 | 26 | 0.0 | 0.0 | 0.00 | 0.00 | 0.00 | 68 | 1015.9 | |
| 20260507030530 | 25 | 0.0 | 0.0 | 0.00 | 0.00 | 0.00 | 70 | 1015.9 | |
| 20260507025531 | 25 | 270 | 1.7 | 2.6 | 0.00 | 0.00 | 0.00 | 72 | 1015.9 |
| 20260507024531 | 24 | 270 | 1.7 | 2.6 | 0.00 | 0.00 | 0.00 | 73 | 1015.9 |
| 20260507023531 | 24 | 270 | 1.7 | 1.7 | 0.00 | 0.00 | 0.00 | 74 | 1015.9 |
| 20260507022531 | 24 | 270 | 1.7 | 1.7 | 0.00 | 0.00 | 0.00 | 74 | 1015.8 |
| 20260507021531 | 24 | 270 | 1.7 | 2.6 | 0.00 | 0.00 | 0.00 | 75 | 1015.8 |
| 20260507020531 | 24 | 270 | 1.7 | 1.7 | 0.00 | 0.00 | 0.00 | 75 | 1015.8 |
| 20260507015611 | 24 | 270 | 1.7 | 2.6 | 0.00 | 0.00 | 0.00 | 76 | 1015.6 |
| 20260507014531 | 24 | 270 | 1.7 | 2.6 | 0.00 | 0.00 | 0.00 | 76 | 1015.6 |
| 20260507013531 | 24 | 270 | 0.9 | 1.7 | 0.00 | 0.00 | 0.00 | 76 | 1015.6 |
| 20260507012531 | 25 | 270 | 0.9 | 1.7 | 0.00 | 0.00 | 0.00 | 77 | 1015.5 |
| 20260507011531 | 25 | 270 | 0.9 | 1.7 | 0.00 | 0.00 | 0.00 | 77 | 1015.4 |
| 20260507010531 | 25 | 0.0 | 0.9 | 0.00 | 0.00 | 0.00 | 78 | 1015.5 | |
| 20260507005611 | 25 | 270 | 0.9 | 1.7 | 0.00 | 0.00 | 0.00 | 78 | 1015.3 |
| 20260507004551 | 25 | 0.0 | 1.7 | 0.00 | 0.00 | 0.00 | 78 | 1015.3 | |
| 20260507003531 | 25 | 0.0 | 1.7 | 0.00 | 0.00 | 0.00 | 79 | 1015.2 | |
| 20260507002531 | 25 | 270 | 1.7 | 1.7 | 0.00 | 0.00 | 0.00 | 79 | 1015.2 |
| 20260507001531 | 25 | 270 | 1.7 | 2.6 | 0.00 | 0.00 | 0.00 | 80 | 1015.0 |
| 20260507000533 | 26 | 270 | 1.7 | 2.6 | 0.00 | 0.00 | 0.00 | 80 | 1015.0 |
| 20260506235531 | 26 | 270 | 1.7 | 2.6 | 0.00 | 0.00 | 0.00 | 80 | 1014.9 |
| 20260506234531 | 26 | 270 | 0.9 | 1.7 | 0.00 | 0.00 | 0.00 | 80 | 1014.9 |
| 20260506233532 | 26 | 270 | 1.7 | 1.7 | 0.00 | 0.00 | 0.00 | 80 | 1014.8 |
| 20260506232536 | 27 | 270 | 1.7 | 2.6 | 0.00 | 0.00 | 0.00 | 80 | 1014.8 |
| 20260506231530 | 27 | 270 | 1.7 | 1.7 | 0.00 | 0.00 | 0.00 | 80 | 1014.8 |
| 20260506230531 | 27 | 270 | 0.9 | 1.7 | 0.00 | 0.00 | 0.00 | 80 | 1014.7 |
| 20260506225531 | 28 | 270 | 1.7 | 1.7 | 0.00 | 0.00 | 0.00 | 80 | 1014.7 |
| 20260506224531 | 28 | 270 | 1.7 | 1.7 | 0.00 | 0.00 | 0.00 | 79 | 1014.7 |
| 20260506223531 | 28 | 270 | 1.7 | 2.6 | 0.00 | 0.00 | 0.00 | 79 | 1014.7 |
| 20260506222531 | 29 | 0.0 | 0.0 | 0.00 | 0.00 | 0.00 | 78 | 1014.6 | |
| 20260506221531 | 29 | 0.0 | 0.0 | 0.00 | 0.00 | 0.00 | 78 | 1014.5 | |
| 20260506220531 | 29 | 0.0 | 1.7 | 0.00 | 0.00 | 0.00 | 78 | 1014.4 | |
| 20260506215531 | 29 | 0.0 | 0.0 | 0.00 | 0.00 | 0.00 | 77 | 1014.4 | |
| 20260506214531 | 30 | 0.0 | 0.0 | 0.00 | 0.00 | 0.00 | 77 | 1014.3 | |
| 20260506213531 | 29 | 0.0 | 0.0 | 0.00 | 0.00 | 0.00 | 78 | 1014.2 | |
| 20260506212611 | 30 | 0.0 | 0.0 | 0.00 | 0.00 | 0.00 | 77 | 1014.2 | |
| 20260506211531 | 30 | 0.0 | 0.0 | 0.00 | 0.00 | 0.00 | 76 | 1014.2 | |
| 20260506210531 | 30 | 0.0 | 0.0 | 0.00 | 0.00 | 0.00 | 76 | 1014.2 | |
| 20260506205531 | 30 | 0.0 | 0.0 | 0.00 | 0.00 | 0.00 | 75 | 1014.0 | |
| 20260506204531 | 31 | 0.0 | 0.0 | 0.00 | 0.00 | 0.00 | 75 | 1014.0 | |
| 20260506203531 | 32 | 270 | 1.7 | 2.6 | 0.00 | 0.00 | 0.00 | 71 | 1014.0 |
| 20260506202531 | 33 | 0.0 | 2.6 | 0.00 | 0.00 | 0.00 | 68 | 1014.0 | |
| 20260506201531 | 35 | 270 | 0.9 | 3.5 | 0.00 | 0.00 | 0.00 | 65 | 1013.9 |
| 20260506200531 | 35 | 270 | 1.7 | 3.5 | 0.00 | 0.00 | 0.00 | 65 | 1013.9 |
| 20260506195530 | 35 | 270 | 1.7 | 2.6 | 0.00 | 0.00 | 0.00 | 65 | 1013.9 |
| 20260506194531 | 36 | 270 | 2.6 | 3.5 | 0.00 | 0.00 | 0.00 | 61 | 1013.8 |
| 20260506193531 | 36 | 270 | 2.6 | 3.5 | 0.00 | 0.00 | 0.00 | 63 | 1013.7 |
| 20260506192531 | 37 | 270 | 1.7 | 2.6 | 0.00 | 0.00 | 0.00 | 59 | 1013.7 |
| 20260506191534 | 38 | 270 | 2.6 | 5.2 | 0.00 | 0.00 | 0.00 | 58 | 1013.6 |
| 20260506190534 | 39 | 270 | 1.7 | 3.5 | 0.00 | 0.00 | 0.00 | 56 | 1013.6 |
| 20260506185532 | 40 | 270 | 1.7 | 2.6 | 0.00 | 0.00 | 0.00 | 55 | 1013.6 |
| 20260506184531 | 41 | 270 | 1.7 | 3.5 | 0.00 | 0.00 | 0.00 | 55 | 1013.6 |
| 20260506183531 | 42 | 270 | 0.9 | 2.6 | 0.00 | 0.00 | 0.00 | 50 | 1013.6 |
| 20260506182531 | 44 | 270 | 0.9 | 2.6 | 0.00 | 0.00 | 0.00 | 46 | 1013.5 |
| 20260506181531 | 44 | 270 | 0.9 | 3.5 | 0.00 | 0.00 | 0.00 | 45 | 1013.3 |
| 20260506180531 | 45 | 270 | 0.9 | 3.5 | 0.00 | 0.00 | 0.00 | 44 | 1013.3 |
| 20260506175551 | 45 | 270 | 1.7 | 5.2 | 0.00 | 0.00 | 0.00 | 43 | 1013.1 |
| 20260506174531 | 45 | 270 | 1.7 | 6.1 | 0.00 | 0.00 | 0.00 | 42 | 1013.1 |
| 20260506173531 | 46 | 270 | 1.7 | 6.1 | 0.00 | 0.00 | 0.00 | 41 | 1013.0 |
| 20260506172531 | 47 | 270 | 1.7 | 7.0 | 0.00 | 0.00 | 0.00 | 40 | 1012.8 |
| 20260506171530 | 47 | 270 | 1.7 | 7.0 | 0.00 | 0.00 | 0.00 | 39 | 1012.8 |
| 20260506170550 | 47 | 270 | 0.9 | 6.1 | 0.00 | 0.00 | 0.00 | 39 | 1012.7 |
| 20260506165551 | 48 | 270 | 2.6 | 6.1 | 0.00 | 0.00 | 0.00 | 37 | 1012.7 |
| 20260506164531 | 49 | 293 | 3.5 | 8.7 | 0.00 | 0.00 | 0.00 | 36 | 1012.6 |
| 20260506163551 | 49 | 293 | 1.7 | 9.6 | 0.00 | 0.00 | 0.00 | 35 | 1012.5 |
| 20260506162531 | 50 | 315 | 2.6 | 7.8 | 0.00 | 0.00 | 0.00 | 34 | 1012.5 |
| 20260506161531 | 49 | 293 | 3.5 | 10.4 | 0.00 | 0.00 | 0.00 | 34 | 1012.4 |
| 20260506160532 | 49 | 293 | 4.3 | 9.6 | 0.00 | 0.00 | 0.00 | 33 | 1012.4 |
| 20260506155532 | 49 | 293 | 5.2 | 13.0 | 0.00 | 0.00 | 0.00 | 32 | 1012.4 |
| 20260506154531 | 49 | 270 | 2.6 | 9.6 | 0.00 | 0.00 | 0.00 | 32 | 1012.4 |
| 20260506153530 | 50 | 270 | 4.3 | 11.3 | 0.00 | 0.00 | 0.00 | 33 | 1012.4 |
| 20260506152552 | 50 | 315 | 3.5 | 7.8 | 0.00 | 0.00 | 0.00 | 36 | 1012.3 |
| 20260506151531 | 50 | 270 | 6.1 | 11.3 | 0.00 | 0.00 | 0.00 | 32 | 1012.3 |
| 20260506150530 | 50 | 315 | 5.2 | 11.3 | 0.00 | 0.00 | 0.00 | 33 | 1012.2 |
| 20260506145532 | 50 | 293 | 6.1 | 11.3 | 0.00 | 0.00 | 0.00 | 32 | 1012.3 |
| 20260506144532 | 50 | 315 | 6.1 | 13.0 | 0.00 | 0.00 | 0.00 | 33 | 1012.2 |
| 20260506143530 | 51 | 270 | 3.5 | 8.7 | 0.00 | 0.00 | 0.00 | 33 | 1012.2 |
| 20260506142552 | 51 | 293 | 7.0 | 13.9 | 0.00 | 0.00 | 0.00 | 33 | 1012.2 |
| 20260506141551 | 51 | 293 | 3.5 | 11.3 | 0.00 | 0.00 | 0.00 | 34 | 1012.1 |
| 20260506140531 | 51 | 293 | 5.2 | 9.6 | 0.00 | 0.00 | 0.00 | 33 | 1012.1 |
| 20260506135531 | 51 | 293 | 3.5 | 9.6 | 0.00 | 0.00 | 0.00 | 35 | 1012.0 |
| 20260506134531 | 51 | 293 | 5.2 | 10.4 | 0.00 | 0.01 | 0.00 | 34 | 1011.9 |
| 20260506133531 | 52 | 270 | 3.5 | 8.7 | 0.00 | 0.01 | 0.00 | 33 | 1012.0 |
| 20260506132532 | 51 | 293 | 4.3 | 11.3 | 0.00 | 0.01 | 0.00 | 33 | 1012.0 |
| 20260506131531 | 51 | 270 | 4.3 | 13.0 | 0.00 | 0.01 | 0.00 | 35 | 1011.7 |
| 20260506130531 | 52 | 270 | 5.2 | 12.2 | 0.00 | 0.01 | 0.00 | 34 | 1011.8 |
| 20260506125531 | 52 | 315 | 5.2 | 13.0 | 0.00 | 0.01 | 0.00 | 32 | 1011.7 |
| 20260506124552 | 52 | 270 | 2.6 | 8.7 | 0.00 | 0.01 | 0.00 | 36 | 1011.6 |
| 20260506123532 | 52 | 293 | 5.2 | 17.4 | 0.00 | 0.01 | 0.00 | 31 | 1011.5 |
| 20260506122531 | 52 | 270 | 2.6 | 9.6 | 0.00 | 0.01 | 0.00 | 34 | 1011.6 |
| 20260506121531 | 52 | 270 | 6.1 | 11.3 | 0.00 | 0.01 | 0.00 | 33 | 1011.7 |
| 20260506120531 | 52 | 293 | 3.5 | 9.6 | 0.00 | 0.01 | 0.00 | 34 | 1011.6 |
| 20260506115551 | 52 | 270 | 3.5 | 13.0 | 0.00 | 0.01 | 0.00 | 36 | 1011.7 |
| 20260506114531 | 51 | 270 | 3.5 | 9.6 | 0.00 | 0.01 | 0.00 | 34 | 1011.5 |
| 20260506113531 | 51 | 248 | 2.6 | 8.7 | 0.00 | 0.01 | 0.00 | 36 | 1011.5 |
| 20260506112551 | 51 | 270 | 3.5 | 13.0 | 0.00 | 0.01 | 0.00 | 36 | 1011.4 |
| 20260506111551 | 51 | 293 | 8.7 | 19.1 | 0.00 | 0.01 | 0.00 | 33 | 1011.4 |
| 20260506110531 | 51 | 270 | 5.2 | 12.2 | 0.00 | 0.01 | 0.00 | 36 | 1011.3 |
| 20260506105531 | 51 | 315 | 7.0 | 13.9 | 0.00 | 0.01 | 0.00 | 36 | 1011.4 |
| 20260506104551 | 50 | 293 | 5.2 | 9.6 | 0.00 | 0.01 | 0.00 | 37 | 1011.3 |
| 20260506103531 | 50 | 293 | 4.3 | 16.5 | 0.00 | 0.01 | 0.00 | 38 | 1011.4 |
| 20260506102531 | 50 | 270 | 7.0 | 14.8 | 0.00 | 0.01 | 0.00 | 36 | 1011.3 |
| 20260506101531 | 50 | 270 | 4.3 | 13.0 | 0.00 | 0.01 | 0.00 | 37 | 1011.2 |
| 20260506100531 | 50 | 270 | 6.1 | 10.4 | 0.00 | 0.01 | 0.00 | 38 | 1011.1 |
| 20260506095530 | 50 | 248 | 4.3 | 10.4 | 0.00 | 0.01 | 0.00 | 37 | 1011.0 |
| 20260506094531 | 50 | 293 | 4.3 | 15.6 | 0.00 | 0.01 | 0.00 | 41 | 1011.0 |
| 20260506093532 | 49 | 293 | 2.6 | 9.6 | 0.00 | 0.01 | 0.00 | 44 | 1010.9 |
| 20260506092531 | 49 | 315 | 3.5 | 11.3 | 0.00 | 0.01 | 0.00 | 42 | 1011.0 |
| 20260506091551 | 48 | 293 | 7.0 | 13.0 | 0.00 | 0.01 | 0.00 | 43 | 1010.9 |
| 20260506090530 | 48 | 293 | 4.3 | 11.3 | 0.00 | 0.01 | 0.00 | 41 | 1010.9 |
| 20260506085531 | 48 | 293 | 4.3 | 13.0 | 0.00 | 0.01 | 0.00 | 44 | 1010.9 |
| 20260506084530 | 48 | 270 | 7.0 | 13.9 | 0.00 | 0.01 | 0.00 | 43 | 1010.9 |